STARLINK-1191 (45222 NORAD) Tracking and Keplerian Element Data

This shows tracking and keplerian element data for the satellite.

Feedback or suggestion? Click here.




ElementValue
Catalog45222
NameSTARLINK-1191
Epoch Orbit751
Epoch Day94.25001157
Epoch Year2020
RAAN42.9015
Inclination52.9989
Eccentricity0.0007491
Argument of Perigee321.6952
Mean Anonmoly144.9491
Mean Motion15.62727615
Decay Rate0.00034773
L11 45222U 20012AW 20094.25001157 .00034773 00000-0 38391-3 0 9997
L22 45222 52.9989 42.9015 0007491 321.6952 144.9491 15.62727615 7516

Live tracking and technical data element details for STARLINK-1191 (NORAD 45222). STARLINK-1191 can be tracked NOW for your location showing map with azimuth and elevation plus other details from your city location.

Track the satellite on the map from your city or location and see movement details for azimuth, elevation, latitude, longitude, range, height, and movement on the map or in text.







IsCatalogInMostPopularTable: catalog: 45222, numindb: 5
Update: records affected: 1



GetName: 45222 STARLINK-1191

Hit Count: updated at: Tue, 07 Apr 2020 16:24:32 GMT